Location: Austin
(30.3000°N, 97.7500°W)
Time: 09:04:32
(UTC-05:00)

Tiangong - Visible Passes

Search period start: 11 April 2026 00:00
Search period end: 21 April 2026 00:00
Orbit: 378 x 384 km, 41.5° (Epoch: 11 April)

Date Brightness Start Highest point End Pass type
(mag) Time Alt. Az. Time Alt. Az. Time Alt. Az.
11 Apr -0.3 20:20:38 10° NNW 20:23:07 21° NNE 20:25:35 10° ENE visible
11 Apr 0.3 21:56:56 10° WNW 21:58:19 23° WNW 21:58:19 23° WNW visible
12 Apr -2.0 20:56:06 10° NW 20:59:13 61° NNE 21:00:30 30° E visible
13 Apr -0.6 21:32:13 10° W 21:34:52 28° SW 21:34:52 28° SW visible
14 Apr -1.9 20:31:01 10° WNW 20:34:08 64° SSW 20:37:07 11° SE visible
15 Apr 0.5 21:07:54 10° WSW 21:09:39 14° SW 21:11:23 10° S visible
